COSMOS 1263

导读

COSMOS 1263(宇宙1263)是前苏联(CIS独联体)以"宇宙"系列命名的人造卫星,于1981年4月9日发射入轨。苏联冷战时期习惯将大量军用卫星归入"宇宙"系列编号,这类卫星多承担侦察、测绘或技术试验任务,多运行在近地轨道,是苏联在冷战太空竞赛与军事航天布局中的一颗常规卫星。这一卫星系列见证了早期航天发展历程,部分退役卫星已再入大气层焚毁,部分仍成为轨道残留物。

Basic Information
目录编号:
12388
目录名称:
COSMOS 1263
国际标识:
1981-033A
轨道中心:
EARTH
卫星名称:
COSMOS 1263
卫星全名:
--
卫星状态:
在轨 (已飞行16584 天)
发射日期:
1981-04-09 UTC
国别 :
俄罗斯(独联体) (CIS)
星等 :
--
Orbit Information
数据来源 国际轨道数据
星历时间: 2026-09-04T11:31:26+0800
6小时前
查看轨道信息
半长轴: 7167.538km
偏心率: 0.0572857
轨道倾角: 82.860°
近地点辐角 207.721°
升交点赤经 149.089°
平近点角 149.234°
近地点: 378.803km
远地点: 1199.999km
周期: 100.650分钟
每日圈数: 14.306974
Detailed Information
使用方式:
暂无
2D Orbit Map
3D Orbit Map
Orbit Altitude Analysis Chart
Orbit Inclination Analysis Chart
Orbit Comprehensive Analysis Chart
View Comprehensive Chart
Conjunction Data List
Event ID Objects TCA Miss Dist (km) Collision Risk Probability Collision Risk Index (CRI) Action
CDM_260905-091501-238805-981023
OBJECT A (59810)
2026-09-05T
09:15:14+0000
0.783 km
远距离
6.230538E-5 中风险 0.71
CDM_260906-085501-238804-106322
2026-09-06T
08:55:00+0000
2.310 km
极远距离
2.052727E-6 低风险 0.41
CDM_260906-031701-238806-185921
2026-09-06T
03:17:31+0000
2.441 km
极远距离
1.72681E-6 低风险 0.4
CDM_260904-113301-238803-520427
2026-09-04T
11:33:44+0000
2.048 km
极远距离
1.630173E-6 低风险 0.39
CDM_260904-155001-238804-704822
2026-09-04T
15:50:15+0000
2.468 km
极远距离
7.897181E-7 极低风险 0.33